Location: *
(55.6049°S, 142.1985°W)
Time: 09:08:43
(UTC+00:00)

COSMO-SKYMED 1 - Pass Details

Date: 12 May 2021
Orbit: 621 x 623 km, 97.9° (Epoch: 13 June)

Event Time Altitude Azimuth Distance (km) Brightness Sun altitude
Rises 15:27:40 0° 163° (SSE) 2,954 6.1 -14.7°
Reaches altitude 10° 15:29:56 10° 158° (SSE) 2,039 5.3 -14.4°
Maximum altitude 15:34:18 54° 79° (E) 775 3.5 -13.8°
Drops below altitude 10° 15:38:36 10° 1° (N) 2,014 5.4 -13.2°
Sets 15:40:50 0° 356° (N) 2,914 6.1 -12.9°
